Location: Ikejouine
(32.5142°N, 5.4699°W)
Time: 01:21:35
(UTC+00:00)

Cosmos 2058 Rocket - Pass Details

Date: 09 April 2020
Orbit: 610 x 639 km, 82.5° (Epoch: 06 June)

Event Time Altitude Azimuth Distance (km) Brightness Sun altitude
Rises 20:26:15 0° 198° (SSW) 2,925 6.5 -20.6°
Reaches altitude 10° 20:28:32 10° 204° (SSW) 2,021 5.7 -21.1°
Maximum altitude 20:32:52 48° 279° (W) 840 4.1 -21.9°
Drops below altitude 10° 20:37:14 10° 354° (N) 2,032 6.1 -22.7°
Sets 20:39:33 0° 360° (N) 2,942 6.9 -23.1°
